User: anonymous   Login
Location: Eckley
(40.9930°N, 75.8630°W)
Time: 16:07:40
(UTC-05:00)
Language:

Cosmos 2221 Rocket - Orbit

View from above orbital plane
View from above orbital plane
View from above satellite
View from above satellite

Ground track
Ground track

The orbit data is extracted from the following two-line orbital elements,

1 22237U 92080B   15056.88781734  .00000336  00000-0  43218-4 0  9992
2 22237 082.5145 181.1438 0021177 081.5381 039.1885 14.78069540199000
Epoch (UTC): 25 February 2015 21:18:27
Eccentricity: 0.0021177
inclination: 82.5145°
perigee height: 620 km
apogee height: 650 km
right ascension of ascending node: 181.1438°
argument of perigee: 81.5381°
revolutions per day: 14.78069540
mean anomaly at epoch: 39.1885°
orbit number at epoch: 19900

The dashed part of the orbit path shows where the satellite is in the earth's shadow,  

DLR